Weather History for KOFF - December, 2012

Change the Weather History Date:

Thursday, December 13, 2012

  Actual Average Record
Temperature  
Mean Temperature 37 °F -  
Max Temperature 52 °F 37 °F 59 °F (2008)
Min Temperature 22 °F 19 °F 3 °F (2010)
Degree Days  
Heating Degree Days 28    
Moisture  
Dew Point 19 °F    
Average Humidity 55    
Maximum Humidity 83    
Minimum Humidity 29    
Precipitation  
Precipitation 0.00 in - - ()
Sea Level Pressure  
Sea Level Pressure 30.05 in    
Wind  
Wind Speed 4 mph (SSW)    
Max Wind Speed 9 mph    
Max Gust Speed -    
Visibility 10 miles    
Events      
Averages and records for this station are not official NWS values.
T = Trace of Precipitation, MM = Missing Value Source: NWS Daily Summary

Daily Weather History Graph

Daily Weather History Graph

Search for Another Location

Airport or City:

Trip Planner

Search our weather history database for the weather conditions in past years. The results will help you decide how hot, cold, wet, or windy it might be!

Date:

Astronomy

Dec. 13, 2012 Rise Set
Actual Time 7:40 AM CST 4:55 PM CST
Civil Twilight 7:09 AM CST 5:26 PM CST
Nautical Twilight 6:34 AM CST 6:01 PM CST
Astronomical Twilight 6:01 AM CST 6:34 PM CST
Moon 7:50 AM CST (12/13) 5:39 PM CST (12/13)
Length of Visible Light 10h 17m
Length of Day
9h 14m
New Moon, 0% of the Moon is Illuminated
Dec 13
New Moon
Dec 19
First Quarter
Dec 28
Full
Jan 4
Last Quarter
Jan 11
New

Hourly Weather History & Observations

Time (CST) Temp. Windchill Dew Point Humidity Pressure Visibility Wind Dir Wind Speed Gust Speed Precip Events Conditions
12:55 AM 31.5 °F 24.2 °F 14.7 °F 50% 30.01 in 10.0 mi SE 8.1 mph - N/A   Clear
1:55 AM 30.4 °F 25.6 °F 14.9 °F 53% 30.00 in 10.0 mi SE 4.6 mph - N/A   Clear
2:55 AM 30.4 °F 23.6 °F 15.1 °F 53% 30.01 in 10.0 mi SSE 6.9 mph - N/A   Clear
3:55 AM 31.6 °F 27.0 °F 15.3 °F 51% 30.01 in 10.0 mi South 4.6 mph - N/A   Clear
4:55 AM 30.7 °F 26.0 °F 15.3 °F 53% 30.01 in 10.0 mi South 4.6 mph - N/A   Clear
5:55 AM 29.8 °F 24.9 °F 15.6 °F 56% 30.01 in 10.0 mi South 4.6 mph - N/A   Clear
6:55 AM 28.8 °F 25.0 °F 15.3 °F 57% 30.03 in 10.0 mi South 3.5 mph - N/A   Clear
7:55 AM 22.8 °F - 14.5 °F 71% 30.05 in 10.0 mi Calm Calm - N/A   Clear
8:55 AM 30.2 °F - 17.8 °F 60% 30.06 in 10.0 mi Calm Calm - N/A   Clear
9:55 AM 38.5 °F 33.4 °F 19.4 °F 46% 30.06 in 10.0 mi SSW 6.9 mph - N/A   Clear
10:55 AM 45.5 °F 40.8 °F 20.8 °F 38% 30.06 in 10.0 mi SW 9.2 mph - N/A   Clear
11:55 AM 49.3 °F - 21.0 °F 33% 30.06 in 10.0 mi WSW 6.9 mph - N/A   Clear
12:55 PM 51.8 °F - 20.8 °F 30% 30.05 in 10.0 mi West 3.5 mph - N/A   Clear
1:55 PM 51.6 °F - 21.4 °F 31% 30.04 in 10.0 mi West 3.5 mph - N/A   Clear
2:55 PM 52.7 °F - 21.4 °F 29% 30.04 in 10.0 mi WSW 3.5 mph - N/A   Clear
3:55 PM 51.1 °F - 21.6 °F 31% 30.05 in 10.0 mi Calm Calm - N/A   Clear
4:55 PM 39.6 °F - 22.1 °F 50% 30.06 in 10.0 mi Calm Calm - N/A   Clear
5:55 PM 35.1 °F - 21.6 °F 58% 30.07 in 10.0 mi Calm Calm - N/A   Clear
6:55 PM 30.2 °F - 21.0 °F 69% 30.09 in 10.0 mi Calm Calm - N/A   Clear
7:55 PM 26.1 °F - 18.9 °F 74% 30.10 in 10.0 mi Calm Calm - N/A   Clear
8:55 PM 26.1 °F - 20.5 °F 79% 30.10 in 10.0 mi Calm Calm - N/A   Clear
9:55 PM 24.8 °F - 19.8 °F 81% 30.10 in 10.0 mi Calm Calm - N/A   Clear
10:55 PM 24.8 °F - 20.3 °F 83% 30.08 in 10.0 mi Calm Calm - N/A   Clear
11:55 PM 23.9 °F - 18.3 °F 79% 30.08 in 10.0 mi Calm Calm - N/A   Clear